Preview of NWS' New Version of Forecast
This preview is not operational and should not be used for support decisions.

Regional Weather Roundup (RWR)

Issued by National Weather Service (NWS)

                            
000
ASUS43 KMKX 210400
RWRWI 

WISCONSIN REGIONAL WEATHER ROUNDUP
NATIONAL WEATHER SERVICE MILWAUKEE/SULLIVAN WI
1000 PM CST WED FEB 20 2019

NOTE: "FAIR" INDICATES FEW OR NO CLOUDS BELOW 12,000 FEET WITH NO
SIGNIFICANT WEATHER AND/OR OBSTRUCTIONS TO VISIBILITY.

WIZ001-002-006>008-014>016-023>028-210500-
NORTHWEST WISCONSIN
  
CITY           SKY/WX    TMP DP  RH WIND       PRES   REMARKS
SUPERIOR ARPT  CLOUDY    24  23  96 CALM      29.64R                  
ASHLAND        LGT SNOW  20  20 100 SW3       29.63R FOG              
HAYWARD        FOG       14  12  92 CALM      29.61R VSB 1/2          
SIREN          CLOUDY    20  19  95 CALM      29.65R                  
CUMBERLAND     FLURRIES  27  21  80 SW14      29.64R WCI  15          
RICE LAKE      FLURRIES  27  13  54 W8        29.65R WCI  19          
CHETEK         FLURRIES  26  24  91 W3        29.66R                  
LADYSMITH      CLOUDY    27  26  96 SW10      29.64R WCI  17          
EAU CLAIRE     LGT SNOW  26  21  81 SW18G29   29.67R WCI  13          
MENOMONIE      LGT SNOW  23  18  83 SW15      29.69R WCI  10          
NEW RICHMOND   LGT SNOW  24  20  84 SW18      29.67R WCI  11          
OSCEOLA        CLOUDY    26  23  91 SW10      29.71R WCI  16          
$$
 
WIZ003>005-009-010-017-018-210500-
NORTH CENTRAL WISCONSIN
  
CITY           SKY/WX    TMP DP  RH WIND       PRES   REMARKS
MANITOWISH WTR NOT AVBL                                               
ARBOR VITAE    FLURRIES  23  21  93 SW3       29.57R                  
WOODRUFF       FLURRIES  23  21  93 SW3       29.57R                  
RHINELANDER    CLOUDY    26  21  81 SW10      29.58R WCI  16          
EAGLE RIVER    LGT SNOW  20  19  96 CALM      29.56R                  
LAND O LAKES   FLURRIES  20  19  93 CALM      29.57S                  
PHILLIPS       CLOUDY    25  23  93 SW6       29.58R WCI  18          
TOMAHAWK       CLOUDY    25  22  90 SW3       29.60R                  
MEDFORD        FLURRIES  26  22  87 W12G21    29.62R WCI  15          
MERRILL        FLURRIES  26  25  93 W8        29.61R WCI  18          
$$
 
WIZ029-030-035-036-043>047-210500-
CENTRAL WISCONSIN
  
CITY           SKY/WX    TMP DP  RH WIND       PRES   REMARKS
WAUSAU         LGT SNOW  27  23  85 SW10G20   29.62R FOG     WCI  17  
MOSINEE        FLURRIES  28  27  93 SW14      29.65R WCI  17          
MARSHFIELD     LGT SNOW  28  24  85 SW16G25   29.64R FOG     WCI  16  
STEVENS POINT  MIX PCPN  28  24  88 SW15G21   29.66R WCI  16          
WAUPACA        CLOUDY    33  27  78 SW10      29.69R WCI  24          
WAUTOMA        FLURRIES  30  23  75 W20G29    29.71R WCI  17          
WISC RAPIDS    CLOUDY    29  21  72 SW12      29.69R WCI  19          
CAMP DOUGLAS   FLURRIES  28  21  74 W15       29.71R WCI  17          
$$
 
WIZ011>013-019>022-031-037>040-048>050-210500-
NORTHEAST WISCONSIN
  
CITY           SKY/WX    TMP DP  RH WIND       PRES   REMARKS
ANTIGO         CLOUDY    26  24  93 W10       29.60R WCI  15          
SHAWANO        CLOUDY    31  28  88 SW7       29.65R WCI  24          
OCONTO         CLOUDY    31  27  86 W16G25    29.64R WCI  20          
STURGEON BAY   CLOUDY    32  28  85 W18       29.64R WCI  20          
GREEN BAY      CLOUDY    35  27  72 W15G26    29.67R WCI  25          
MANITOWOC      CLOUDY    34  26  72 W16G24    29.69R WCI  24          
APPLETON       CLOUDY    32  25  74 SW18G25   29.67R WCI  20          
CLINTONVILLE   CLOUDY    31  26  80 W14       29.66R WCI  21          
OSHKOSH        CLOUDY    32  21  64 W15G31    29.69R WCI  22          
$$
 
WIZ032>034-041-042-053>061-210500-
SOUTHWEST WISCONSIN
  
CITY           SKY/WX    TMP DP  RH WIND       PRES   REMARKS
LA CROSSE      CLOUDY    27  18  69 W18G25    29.78R WCI  14          
SPARTA         CLOUDY    28  21  74 W10G17    29.74R WCI  19          
VIROQUA        CLOUDY    25  23  89 SW17G26   29.75R WCI  12          
BOSCOBEL       MIX PCPN  30  20  66 SW10G28   29.81R WCI  21          
PRAIRIE DU CHI CLOUDY    27  17  67 W14G25    29.84R WCI  15          
PLATTEVILLE    MOCLDY    28  24  84 W29G35    29.81R WCI  12          
$$

WIZ056-057-062-063-064-067-068-210500-
SOUTH CENTRAL WISCONSIN
  
CITY           SKY/WX    TMP DP  RH WIND       PRES   REMARKS
REEDSBURG      CLOUDY    29  21  71 W15G22    29.74R WCI  18          
BARABOO/DELLS  CLOUDY    30  20  66 W13G18    29.74R WCI  20          
LONE ROCK      CLOUDY    30  21  69 W15G25    29.78R WCI  19          
MINERAL POINT  MOCLDY    30  23  74 W23G30    29.76R WCI  17          
MADISON        CLOUDY    31  22  69 W14G24    29.76R WCI  21          
MIDDLETON      CLOUDY    32  25  74 W17G26    29.75R WCI  21          
WATERTOWN      CLOUDY    32  22  67 W18G29    29.76R WCI  20          
MONROE         CLOUDY    31  25  77 MISG      29.78R                  
JANESVILLE     CLOUDY    34  25  69 W16G22    29.80R WCI  23          
$$
 
WIZ051-052-058>065-066-070>072-210500-
SOUTHEAST WISCONSIN
  
CITY           SKY/WX    TMP DP  RH WIND       PRES   REMARKS
MILWAUKEE      CLOUDY    36  24  62 W25G39    29.76R WCI  24          
WAUKESHA       CLOUDY    32  25  74 W16G30    29.77R WCI  21          
MILWAUKEE/TIMM CLOUDY    34  23  64 W15G24    29.76R WCI  24          
RACINE         CLOUDY    36  26  67 W15G36    29.78R WCI  27          
KENOSHA        CLOUDY    36  27  69 W24G40    29.78R WCI  24          
FOND DU LAC    CLOUDY    32  24  72 W12G30    29.71R WCI  23          
SHEBOYGAN      CLOUDY    33  26  75 W20G30    29.69R WCI  21          
WEST BEND      CLOUDY    32  27  80 W22G30    29.72R WCI  19          
JUNEAU         CLOUDY    30  23  74 SW21G31   29.75R WCI  18          
$$

LSZ147-162-210500-
LAKE SUPERIOR
  
STATION/POSITION TIME  TEMP    WIND        PRES    WAVE
                       AIR SEA DIR/SP/G            HT/PER
                 (UTC) (F)     (DEG/KT/KT) (MB)    (FT/S)
DEVILS ISLAND    0300   26     100/ 13/ 14 1003.8F
SAXON HARBOR     0340   20     180/  1/  2 1002.7R
$$
 
LMZ867-665-643>646-210500-
LAKE MICHIGAN
  
STATION/POSITION TIME  TEMP    WIND        PRES    WAVE
                       AIR SEA DIR/SP/G            HT/PER
                 (UTC) (F)     (DEG/KT/KT) (MB)    (FT/S)
CHAMBERS ISLAND  0340   30     220/  9/ 19 1002.4R
NORTHPORT PIER   0340   32     220/  4/  7 1002.4R
KEWAUNEE LAKESHO 0330   34     270/ 14/ 18 1003.4R
SHEBOYGAN LAKESH 0300   35     250/ 19/ 29 1005.3R
PORT WASHINGTON  0340   35     260/ 15/ 25 1008.1R
MILWAUKEE LAKESH 0330   36     270/ 21/ 25   N/A
KENOSHA   LAKESH 0300   36     250/ 21/ 30 1008.5
$$

TC  - TEMPERATURE IN CELSIUS
VSB - VISIBILITY IN STATUTE MILES
WCI - WIND CHILL INDEX
HX  - HEAT INDEX